Regional Weather Roundup
Issued by NWS

Home | Current Version | Previous Version | Text Only | Print | Product List | Glossary Off
Versions: 1 2 3 4 5 6 7 8 9 10 11 12 13 14 15 16 17 18 19 20 21 22 23 24 25 26 27 28 29 30 31 32 33 34 35 36 37 38 39 40 41 42 43 44 45 46 47 48 49 50

420
ASUS43 KFSD 221702
RWRSD

WEATHER ROUNDUP FOR SOUTH DAKOTA
NATIONAL WEATHER SERVICE SIOUX FALLS SD
1200 PM CDT FRI SEP 22 2017

NOTE: "FAIR" INDICATES FEW OR NO CLOUDS BELOW 12,000 FEET WITH NO
SIGNIFICANT WEATHER AND/OR OBSTRUCTIONS TO VISIBILITY.


SDZ001>005-009-010-012>017-221800-
NORTHWEST AND NORTH CENTRAL SOUTH DAKOTA

CITY           SKY/WX    TMP DP  RH WIND       PRES   REMARKS
BUFFALO          N/A     52  36  54 N24G31    29.80F
FAITH            N/A     54  45  71 N23       29.76R
MOBRIDGE       CLOUDY    64  59  83 VRB7      29.65R
$$

SDZ012>016-024>037-041>051-057-063-072>074-221800-
SOUTHWEST AND SOUTH CENTRAL SOUTH DAKOTA

CITY           SKY/WX    TMP DP  RH WIND       PRES   REMARKS
RAPID CTY ARPT CLOUDY    55  39  54 NW30G38   29.84R
PIERRE         CLOUDY    68  56  65 W15       29.65R
CUSTER         SUNNY     59  44  57 VRB3      29.85F
ELLSWORTH AFB  CLOUDY    55  40  56 NW25G31   29.84
PHILIP         CLOUDY    57  49  74 NW21      29.75R
PINE RIDGE     CLOUDY    61  44  53 NW10      29.83R
SPEARFISH      CLOUDY    50  39  66 NW13      29.90S
WINNER         FAIR      71  52  50 W17       29.72R
$$

SDZ004>011-016>023-039-040-221800-
NORTHEAST SOUTH DAKOTA

CITY           SKY/WX    TMP DP  RH WIND       PRES   REMARKS
ABERDEEN       PTSUNNY   85  70  60 S16G24    29.63S
WATERTOWN      MOSUNNY   82  72  71 S21       29.70S
BROOKINGS      MOSUNNY   84  71  65 S24       29.73F
SISSETON         N/A     81  74  79 SE13      29.68F
$$

SDZ017-020-022-023-036>040-048>070-221800-
SOUTHEAST SOUTH DAKOTA

CITY           SKY/WX    TMP DP  RH WIND       PRES   REMARKS
SIOUX FALLS    MOSUNNY   85  72  65 S18G29    29.72F
HURON          MOSUNNY   86  68  54 S21G26    29.64R
MITCHELL       SUNNY     89  67  47 S18G24    29.66S
YANKTON        SUNNY     88  69  53 S22G30    29.70S
$$

ABBREVIATIONS USED IN REMARKS
   TC - TEMPERATURE IN CELSIUS
  WCI - WIND CHILL INDEX
   HX - HEAT INDEX
  VSB - VISIBILITY





USA.gov is the U.S. government's official web portal to all federal, state and local government web resources and services.